This is the latest recevied weather packets stored in our database for station/object KM4LTG. If no packets are shown the sender has not sent any weather packets the latest 10 day(s).
| Time | Temp. | Humidity | Pressure | Rain* | Wind** | Luminosity | Snow |
|---|---|---|---|---|---|---|---|
| 1777927005 | 28.33° C | 44% | 1014.7 hPa | 0 mm | - | - | - |
| 1777926720 | 28.33° C | 44% | 1014.7 hPa | 0 mm | - | - | - |
| 1777926470 | 28.89° C | 44% | 1014.8 hPa | 0 mm | - | - | - |
| 1777926175 | 28.89° C | 44% | 1014.9 hPa | 0 mm | - | - | - |
| 1777925906 | 29.44° C | 43% | 1014.8 hPa | 0 mm | - | - | - |
| 1777925655 | 28.89° C | 43% | 1014.9 hPa | 0 mm | - | - | - |
| 1777925355 | 28.89° C | 45% | 1015 hPa | 0 mm | - | - | - |
| 1777925100 | 28.89° C | 45% | 1015 hPa | 0 mm | - | - | - |
| 1777924840 | 28.89° C | 45% | 1015 hPa | 0 mm | - | - | - |
| 1777924600 | 28.89° C | 44% | 1015.1 hPa | 0 mm | - | - | - |
| 1777924334 | 28.89° C | 44% | 1015.3 hPa | 0 mm | - | - | - |
| 1777924090 | 28.33° C | 45% | 1015.3 hPa | 0 mm | - | - | - |
| 1777923835 | 28.89° C | 43% | 1015.3 hPa | 0 mm | - | - | - |
| 1777923545 | 29.44° C | 43% | 1015.3 hPa | 0 mm | - | - | - |
| 1777923260 | 28.89° C | 44% | 1015.4 hPa | 0 mm | - | - | - |
| 1777922960 | 28.89° C | 44% | 1015.5 hPa | 0 mm | - | - | - |
| 1777922675 | 28.33° C | 45% | 1015.6 hPa | 0 mm | - | - | - |
| 1777922409 | 28.33° C | 46% | 1015.8 hPa | 0 mm | - | - | - |
| 1777922140 | 28.33° C | 46% | 1015.8 hPa | 0 mm | - | - | - |
| 1777921880 | 27.78° C | 46% | 1015.7 hPa | 0 mm | - | - | - |
| 1777921590 | 28.33° C | 45% | 1015.8 hPa | 0 mm | - | - | - |
| 1777921335 | 27.78° C | 45% | 1016 hPa | 0 mm | - | - | - |
| 1777921045 | 27.78° C | 45% | 1015.9 hPa | 0 mm | - | - | - |
| 1777920805 | 27.78° C | 46% | 1015.9 hPa | 0 mm | - | - | - |
| 1777920520 | 28.33° C | 44% | 1016.1 hPa | 0 mm | - | - | - |
* Rain latest hour (hover to see other rain measurements)
** Current wind speed in m/s (hover to see current wind gust speed)